Flag for United Kingdom Weather past 2 weeks in Reading, England, United Kingdom

Now
55 °F

Scattered clouds.


Feels Like: 52 °F
Forecast: 42 / 56 °F
Wind: 12 mph from Southwest

Location: Benson

Current Time: Oct 20, 2014 at 10:57:09 AM

Latest Report: Oct 20, 2014 at 9:50 AM


Visibility: N/A

Pressure: 30.04 "Hg

Humidity: 88%

Dew point: 52 °F

Location of ReadingLocation

Historic Weather in Reading — Graph

°F

Reading temperature yesterday

Maximum temperature yesterday: 66 °F (at 2:50 PM)
Minimum temperature yesterday: 55 °F (at 11:50 PM)
Average temperature yesterday: 61 °F

Past Weeks' High & Low Weather Summary

 TemperatureHumidityPressure
High66 °F (Oct 17, 12:50 PM)100% (Oct 6, 6:50 PM)30.15 "Hg (Oct 6, 6:50 PM)
Low37 °F (Oct 12, 1:50 AM)52% (Oct 19, 2:50 PM)29.30 "Hg (Oct 8, 1:50 PM)
Average54 °F86%29.67 "Hg
* Reported Oct 5 9:50 AM — Oct 20 9:50 AM, Reading, Weather by CustomWeather, © 2014

Note: Actual official high and low records may vary slightly from our data, if they occured in-between our weather recording intervals... More about our weather records

Advertising

Reading weather history for previous 24 hours

 ConditionsComfort  
Time TempWeatherWind HumidityBarometerVisibility
9:50 AM
Oct 20
55 °FScattered clouds.12 mph88%30.04 "HgN/A
8:50 AM54 °FScattered clouds.9 mph94%30.04 "HgN/A
7:50 AM52 °FPassing clouds.8 mph94%30.01 "HgN/A
6:50 AM52 °FPassing clouds.8 mph94%30.01 "HgN/A
5:50 AM52 °FPassing clouds.7 mph94%30.01 "HgN/A
3:50 AM54 °FPassing clouds.5 mph88%30.01 "HgN/A
2:50 AM54 °FPassing clouds.8 mph88%30.01 "HgN/A
1:50 AM55 °FPassing clouds.8 mph82%30.01 "HgN/A
12:50 AM55 °FPassing clouds.12 mph82%30.01 "HgN/A
11:50 PM
Oct 19
55 °FPassing clouds.13 mph82%29.98 "HgN/A
10:50 PM57 °FPassing clouds.13 mph77%29.98 "HgN/A
9:50 PM57 °FPassing clouds.10 mph82%29.98 "HgN/A
8:50 PM57 °FPassing clouds.13 mph82%29.95 "HgN/A
7:50 PM59 °FPassing clouds.15 mph77%29.92 "HgN/A
6:50 PM59 °FScattered clouds.10 mph68%29.92 "HgN/A
5:50 PM63 °FScattered clouds.12 mph59%29.92 "HgN/A
4:50 PM64 °FPartly sunny.14 mph56%29.89 "HgN/A
3:50 PM64 °FPartly sunny.20 mph56%29.89 "HgN/A
2:50 PM66 °FScattered clouds.18 mph52%29.92 "HgN/A
1:50 PM64 °FScattered clouds.22 mph60%29.92 "HgN/A
12:50 PM64 °FScattered clouds.21 mph60%29.92 "HgN/A
11:50 AM63 °FScattered clouds.18 mph68%29.92 "HgN/A
10:50 AM63 °FScattered clouds.17 mph73%29.89 "HgN/A
Weather by CustomWeather, © 2014

See weather overviewHow to use our weather pages